Change the Weather History Date:

Saturday, September 1, 2012

  Actual Average Record
Temperature  
Mean Temperature 72 °F -  
Max Temperature 84 °F 75 °F 96 °F (2011)
Min Temperature 59 °F 56 °F 46 °F (2001)
Cooling Degree Days 7    
Growing Degree Days 22 (Base 50)    
Moisture  
Dew Point 52 °F    
Average Humidity 53    
Maximum Humidity 82    
Minimum Humidity 29    
Precipitation  
Precipitation 0.00 in - - ()
Sea Level Pressure  
Sea Level Pressure 30.07 in    
Wind  
Wind Speed 6 mph (ENE)    
Max Wind Speed 14 mph    
Max Gust Speed 22 mph    
Visibility 10 miles    
Events      
Averages and records for this station are not official NWS values.
T = Trace of Precipitation, MM = Missing Value Source: NWS Daily Summary

Daily Weather History Graph

Daily Weather History Graph

Search for Another Location

Airport or City:

Trip Planner

Search our weather history database for the weather conditions in past years. The results will help you decide how hot, cold, wet, or windy it might be!

Date:

Astronomy

Sep. 01, 2012 Rise Set
Actual Time 6:35 AM CDT 7:46 PM CDT
Civil Twilight 6:06 AM CDT 8:15 PM CDT
Nautical Twilight 5:30 AM CDT 8:51 PM CDT
Astronomical Twilight 4:53 AM CDT 9:28 PM CDT
Moon 7:58 PM CDT (9/1) 7:48 AM CDT (9/1)
Length of Visible Light 14h 09m
Length of Day
13h 10m
Full, 99% of the Moon is Illuminated
Sep 1
Full
Sep 8
Last Quarter
Sep 15
New
Sep 22
First Quarter
Sep 29
Full

Hourly Weather History & Observations

Time (CDT) Temp. Dew Point Humidity Pressure Visibility Wind Dir Wind Speed Gust Speed Precip Events Conditions
12:14 AM 66.2 °F 51.8 °F 60% 30.09 in 10.0 mi NE 4.6 mph - N/A   Clear
12:34 AM 66.2 °F 51.8 °F 60% 30.09 in 10.0 mi NE 4.6 mph - N/A   Clear
12:55 AM 66.2 °F 51.8 °F 60% 30.08 in 10.0 mi ENE 4.6 mph - N/A   Clear
1:14 AM 66.2 °F 51.8 °F 60% 30.08 in 10.0 mi ENE 5.8 mph - N/A   Clear
1:34 AM 66.2 °F 51.8 °F 60% 30.08 in 10.0 mi ENE 5.8 mph - N/A   Clear
1:55 AM 66.2 °F 51.8 °F 60% 30.08 in 10.0 mi ENE 5.8 mph - N/A   Clear
2:14 AM 66.2 °F 51.8 °F 60% 30.08 in 10.0 mi ENE 5.8 mph - N/A   Clear
2:34 AM 66.2 °F 51.8 °F 60% 30.08 in 10.0 mi ENE 6.9 mph - N/A   Clear
2:55 AM 66.2 °F 51.8 °F 60% 30.08 in 10.0 mi East 5.8 mph - N/A   Clear
3:14 AM 64.4 °F 51.8 °F 64% 30.08 in 10.0 mi East 3.5 mph - N/A   Clear
3:34 AM 64.4 °F 53.6 °F 68% 30.08 in 10.0 mi ENE 4.6 mph - N/A   Scattered Clouds
3:55 AM 64.4 °F 53.6 °F 68% 30.08 in 10.0 mi NE 3.5 mph - N/A   Scattered Clouds
4:14 AM 64.4 °F 55.4 °F 73% 30.08 in 10.0 mi Calm Calm - N/A   Clear
4:34 AM 62.6 °F 55.4 °F 77% 30.08 in 10.0 mi Calm Calm - N/A   Clear
4:55 AM 62.6 °F 55.4 °F 77% 30.08 in 10.0 mi ENE 3.5 mph - N/A   Clear
5:14 AM 62.6 °F 55.4 °F 77% 30.08 in 10.0 mi ENE 4.6 mph - N/A   Clear
5:34 AM 62.6 °F 55.4 °F 77% 30.08 in 10.0 mi ENE 5.8 mph - N/A   Clear
5:55 AM 62.6 °F 55.4 °F 77% 30.08 in 10.0 mi ENE 4.6 mph - N/A   Clear
6:14 AM 62.6 °F 55.4 °F 77% 30.08 in 10.0 mi ENE 6.9 mph - N/A   Clear
6:34 AM 62.6 °F 55.4 °F 77% 30.09 in 10.0 mi ENE 6.9 mph - N/A   Clear
6:55 AM 62.6 °F 57.2 °F 82% 30.09 in 10.0 mi ENE 5.8 mph - N/A   Clear
7:14 AM 62.6 °F 57.2 °F 82% 30.09 in 10.0 mi ENE 8.1 mph - N/A   Clear
7:34 AM 64.4 °F 57.2 °F 77% 30.10 in 10.0 mi ENE 6.9 mph - N/A   Clear
7:55 AM 66.2 °F 57.2 °F 73% 30.10 in 10.0 mi ENE 8.1 mph - N/A   Clear
8:14 AM 66.2 °F 57.2 °F 73% 30.10 in 10.0 mi East 8.1 mph - N/A   Clear
8:34 AM 69.8 °F 55.4 °F 60% 30.10 in 10.0 mi East 9.2 mph 19.6 mph N/A   Clear
8:55 AM 71.6 °F 53.6 °F 53% 30.10 in 10.0 mi East 10.4 mph - N/A   Clear
9:14 AM 73.4 °F 50.0 °F 44% 30.10 in 10.0 mi East 10.4 mph 17.3 mph N/A   Clear
9:34 AM 75.2 °F 50.0 °F 41% 30.09 in 10.0 mi ESE 12.7 mph 18.4 mph N/A   Clear
9:54 AM 77.0 °F 50.0 °F 39% 30.10 in 10.0 mi East 13.8 mph 18.4 mph N/A   Clear
10:14 AM 78.8 °F 48.2 °F 34% 30.11 in 10.0 mi East 12.7 mph - N/A   Clear
10:35 AM 78.8 °F 48.2 °F 34% 30.11 in 10.0 mi East 12.7 mph 18.4 mph N/A   Clear
11:14 AM 78.8 °F 48.2 °F 34% 30.11 in 10.0 mi East 11.5 mph 21.9 mph N/A   Clear
11:34 AM 80.6 °F 48.2 °F 32% 30.11 in 10.0 mi East 12.7 mph 21.9 mph N/A   Clear
11:54 AM 80.6 °F 48.2 °F 32% 30.11 in 10.0 mi East 12.7 mph 20.7 mph N/A   Clear
12:14 PM 80.6 °F 50.0 °F 34% 30.10 in 10.0 mi East 12.7 mph 19.6 mph N/A   Clear
12:35 PM 80.6 °F 50.0 °F 34% 30.10 in 10.0 mi East 13.8 mph - N/A   Clear
1:14 PM 82.4 °F 48.2 °F 30% 30.08 in 10.0 mi ESE 11.5 mph 18.4 mph N/A   Clear
1:34 PM 82.4 °F 48.2 °F 30% 30.08 in 10.0 mi ESE 12.7 mph 19.6 mph N/A   Clear
1:54 PM 82.4 °F 48.2 °F 30% 30.08 in 10.0 mi East 11.5 mph - N/A   Clear
2:14 PM 84.2 °F 48.2 °F 29% 30.07 in 10.0 mi ESE 11.5 mph 17.3 mph N/A   Clear
2:34 PM 84.2 °F 48.2 °F 29% 30.06 in 10.0 mi East 10.4 mph - N/A   Clear
2:55 PM 84.2 °F 48.2 °F 29% 30.06 in 10.0 mi East 8.1 mph 17.3 mph N/A   Clear
3:14 PM 84.2 °F 48.2 °F 29% 30.05 in 10.0 mi NE 10.4 mph - N/A   Clear
3:34 PM 84.2 °F 48.2 °F 29% 30.05 in 10.0 mi East 12.7 mph 18.4 mph N/A   Clear
3:55 PM 84.2 °F 48.2 °F 29% 30.05 in 10.0 mi East 8.1 mph 18.4 mph N/A   Clear
4:14 PM 84.2 °F 48.2 °F 29% 30.04 in 10.0 mi East 9.2 mph 16.1 mph N/A   Clear
4:34 PM 84.2 °F 48.2 °F 29% 30.03 in 10.0 mi East 12.7 mph 17.3 mph N/A   Clear
4:55 PM 84.2 °F 50.0 °F 30% 30.03 in 10.0 mi NE 12.7 mph - N/A   Clear
5:14 PM 84.2 °F 48.2 °F 29% 30.03 in 10.0 mi NE 11.5 mph - N/A   Clear
5:35 PM 82.4 °F 50.0 °F 32% 30.02 in 10.0 mi ENE 10.4 mph 17.3 mph N/A   Clear
5:54 PM 82.4 °F 48.2 °F 30% 30.02 in 10.0 mi ENE 9.2 mph 17.3 mph N/A   Clear
6:14 PM 80.6 °F 48.2 °F 32% 30.03 in 10.0 mi East 8.1 mph - N/A   Clear
6:35 PM 80.6 °F 48.2 °F 32% 30.03 in 10.0 mi East 9.2 mph - N/A   Clear
6:54 PM 78.8 °F 48.2 °F 34% 30.02 in 10.0 mi East 5.8 mph - N/A   Clear
7:14 PM 78.8 °F 48.2 °F 34% 30.02 in 10.0 mi ENE 4.6 mph - N/A   Clear
7:34 PM 75.2 °F 51.8 °F 44% 30.02 in 10.0 mi ENE 3.5 mph - N/A   Clear
7:55 PM 73.4 °F 51.8 °F 47% 30.03 in 10.0 mi ENE 4.6 mph - N/A   Clear
8:14 PM 71.6 °F 51.8 °F 50% 30.03 in 10.0 mi ENE 4.6 mph - N/A   Clear
8:34 PM 69.8 °F 51.8 °F 53% 30.03 in 10.0 mi ENE 4.6 mph - N/A   Clear
8:55 PM 69.8 °F 53.6 °F 56% 30.03 in 10.0 mi Calm Calm - N/A   Clear
9:14 PM 66.2 °F 53.6 °F 64% 30.04 in 10.0 mi Calm Calm - N/A   Clear
9:34 PM 66.2 °F 51.8 °F 60% 30.04 in 10.0 mi ENE 3.5 mph - N/A   Clear
9:55 PM 64.4 °F 53.6 °F 68% 30.04 in 10.0 mi Calm Calm - N/A   Clear
10:14 PM 62.6 °F 53.6 °F 72% 30.04 in 10.0 mi Calm Calm - N/A   Clear
10:34 PM 62.6 °F 53.6 °F 72% 30.04 in 10.0 mi Calm Calm - N/A   Clear
10:55 PM 62.6 °F 53.6 °F 72% 30.04 in 10.0 mi Calm Calm - N/A   Clear
11:14 PM 60.8 °F 55.4 °F 82% 30.04 in 10.0 mi Calm Calm - N/A   Clear
11:34 PM 60.8 °F 53.6 °F 77% 30.04 in 10.0 mi Calm Calm - N/A   Clear
11:55 PM 59.0 °F 53.6 °F 82% 30.03 in 10.0 mi Calm Calm - N/A   Clear